Find Starlink 35197

NORAD ID: 66193 Int'l Des: 2025-243 Owner: SPXS Country: US Constellation: starlink operational
LEOCIRCULAR

当前视图

正在加载3D地球...

About Starlink 35197

Starlink 35197 (NORAD 66193) is a starlink constellation satellite (v2 mini) launched Oct 26, 2025 by SPXS of US. It operates in LEO, CIRCULAR orbit with a mass of 575.00 kg.

即将过境

Passes for default location (London). Set your location on the main map for personalized predictions.

高度历史

Loading altitude history...

两行轨道根数

1 66193U 25243S 26263.70302286 .00026253 00000-0 78500-3 0 9999
2 66193 53.1574 58.5557 0001627 90.4254 269.6935 15.34415891 50520
Epoch: Sep 20, 2026 • Age: 23 hours

当前状态

高度 462.7 km
远地点 / 近地点 N/A
速度 7.64 km/s
星下点 4.84°N, 2.68°W
发射日期 Oct 26, 2025
运行时间 0.9 years
类型 internet

技术详情

分类 Payload
质量 575.00 kg
干质量 530.00 kg
长度 0.30 m
跨度 29.00 m
形状 ? Box + pan
制造商 SPXS
平台类型 Starlink V2MO
阶段状态 In Orbit
所有者/国家 SPXS/US

Most Searched